Lapse_Rate
-3.1 -3.3 -3.7 -4.0 -4.3 -4.3 -4.2 -4.3 -4.5 -4.7 -4.9 -4.9 -5.1 -5.5 -5.7 -6.2 -6.2 -3.8 2.5 5.9 3.5 0.6 2.4 3.6 5.5 6.9 7.2 7.6 7.5 7.2 6.5 6.5 6.5 6.5 6.5 7.1 6.6 7.6 7.9 7.6 7.7 7.9 7.9 7.2 6.8
-3.0 -3.2 -3.6 -3.8 -4.1 -4.5 -4.7 -4.5 -4.5 -4.8 -5.0 -5.1 -5.2 -5.7 -5.8 -6.3 -3.8 0.6 3.3 0.8 0.6 0.7 4.8 5.2 6.1 7.5 7.6 7.5 7.3 6.8 6.5 6.5 6.5 6.5 6.6 6.8 6.9 7.2 7.1 7.2 7.2 7.5 6.4 5.3 7.6
-2.3 -2.9 -3.5 -3.6 -4.0 -4.4 -4.8 -4.6 -4.5 -4.7 -5.0 -5.1 -5.2 -5.5 -5.6 -5.6 2.7 7.0 1.4 0.3 0.1 2.4 6.8 7.0 6.8 8.1 7.1 7.3 7.1 6.8 6.5 6.5 6.7 7.1 7.2 6.8 6.8 7.6 6.9 6.5 7.3 7.3 7.6 7.6 7.8
-2.3 -2.6 -3.2 -3.6 -4.0 -4.2 -4.5 -4.5 -4.5 -4.8 -5.1 -5.0 -5.1 -5.3 -5.5 -2.0 6.5 6.6 1.0 -0.1 0.6 4.7 7.1 6.8 8.0 7.3 6.6 6.5 7.3 6.5 6.9 6.9 6.9 7.3 7.1 6.6 7.4 6.8 7.2 7.1 8.0 7.2 6.2 7.1 7.9
-2.0 -2.5 -2.9 -3.4 -3.7 -3.9 -4.2 -4.3 -4.3 -4.6 -4.8 -4.8 -4.8 -4.9 -0.8 5.7 5.8 4.7 0.7 -0.3 3.4 5.4 7.3 7.0 7.5 7.2 6.5 6.6 6.9 6.5 6.5 7.1 7.3 7.3 7.3 7.4 6.9 6.7 7.1 7.2 7.0 7.0 8.0 8.1 8.2
-1.7 -2.0 -2.5 -2.8 -3.3 -3.8 -4.0 -4.0 -4.1 -4.5 -4.7 -4.6 -4.6 -4.4 2.7 6.7 6.2 4.3 3.1 2.9 5.4 6.6 6.9 7.2 7.6 7.5 7.0 6.7 6.6 6.9 6.9 6.9 7.2 7.1 7.2 6.7 6.7 7.0 7.3 7.5 7.7 7.6 7.9 8.2 8.1
-1.3 -1.7 -1.9 -2.5 -2.9 -3.4 -3.8 -3.9 -4.2 -4.6 -4.6 -4.4 -4.3 -2.2 3.5 5.7 4.6 4.2 4.7 5.8 6.0 7.3 6.9 7.4 7.2 7.7 7.5 6.4 7.4 7.0 6.5 6.5 6.7 6.9 6.6 7.2 6.5 6.5 7.5 7.9 7.6 7.8 8.0 8.1 8.2
-0.9 -1.3 -2.0 -2.7 -2.9 -3.3 -3.7 -4.1 -4.4 -4.5 -4.2 -3.7 -3.9 -0.5 6.2 4.5 3.6 4.1 6.1 6.4 6.4 6.9 7.6 7.3 7.3 6.9 7.2 6.7 6.9 6.5 6.5 6.5 6.5 6.6 6.8 6.8 6.4 6.5 7.8 7.7 7.5 7.7 8.0 8.0 8.2
-0.0 -0.7 -1.7 -2.3 -2.9 -3.3 -3.8 -4.2 -4.3 -4.0 -3.4 -3.5 -0.5 3.0 7.0 5.1 4.6 5.4 5.0 6.1 6.4 6.8 7.0 7.3 7.6 7.3 6.9 6.5 6.5 6.5 6.5 6.5 6.5 6.7 6.5 6.5 6.5 6.5 7.7 7.6 7.4 7.7 7.9 7.9 8.1
0.3 -0.5 -1.2 -2.0 -2.7 -3.4 -4.1 -4.2 -3.6 -3.3 -1.2 0.1 2.9 5.3 5.6 7.1 6.6 5.1 4.4 6.2 6.8 7.7 7.8 7.7 7.1 6.5 6.6 6.5 6.5 6.5 6.5 6.5 6.5 6.5 6.5 6.5 6.5 6.5 7.4 7.4 7.4 7.6 7.8 7.8 7.9
0.3 -0.3 -0.9 -1.6 -2.3 -3.2 -3.9 -0.4 4.6 5.1 3.7 6.4 6.4 6.1 6.1 7.0 6.3 6.5 6.1 7.7 7.3 7.6 6.4 7.0 6.5 6.5 6.5 6.5 6.5 6.5 6.5 6.5 6.5 6.5 6.5 6.5 6.5 6.5 7.0 7.3 7.1 7.5 7.7 7.8 7.8
0.3 -0.2 -0.8 -1.3 -2.2 -3.2 -3.6 3.2 3.9 4.3 6.9 4.2 4.1 5.2 4.6 5.3 7.0 7.2 7.4 7.4 6.9 6.5 6.6 6.5 6.5 6.5 6.5 6.5 6.5 6.5 6.5 6.5 6.5 6.5 6.5 6.5 6.5 6.5 6.5 6.8 7.3 7.5 7.6 7.8 8.0
0.5 0.1 -0.9 -1.6 -2.6 -2.5 -1.6 2.6 2.0 3.1 6.8 6.8 4.9 6.1 6.4 6.2 7.2 6.8 7.8 7.5 6.5 6.5 6.5 6.5 6.5 6.5 6.5 6.5 6.5 6.5 6.5 6.5 6.5 6.5 6.5 6.5 6.5 6.5 6.6 7.1 7.4 7.7 7.8 7.9 7.9
0.8 0.3 -0.9 -2.2 -1.1 -2.3 1.3 1.5 1.2 2.1 6.5 6.6 6.8 6.9 6.2 7.0 6.7 6.9 7.6 7.5 6.6 6.5 6.5 6.5 6.6 6.5 6.5 6.5 6.5 6.5 6.4 6.5 6.5 6.5 6.5 6.5 6.5 6.5 6.5 6.5 6.5 7.4 7.6 7.8 7.7
0.7 0.1 -1.0 -1.7 -2.0 -0.2 2.2 -0.2 1.2 4.5 6.5 6.5 6.7 6.5 6.3 7.1 7.0 6.4 6.8 7.5 6.5 6.5 6.5 6.5 6.5 6.5 6.5 6.5 6.5 6.6 6.5 6.5 6.5 6.5 6.5 6.4 6.5 6.5 6.5 6.5 6.5 6.8 7.4 7.8 7.8
0.1 -0.7 -1.6 -1.5 -3.2 -0.8 -1.1 0.1 3.8 6.5 6.5 6.5 6.8 6.5 6.6 6.9 6.9 7.3 7.3 7.4 7.5 6.5 6.5 6.5 6.9 6.5 6.5 6.5 6.5 6.5 6.5 6.5 6.5 6.5 6.5 6.5 6.5 6.5 6.5 6.5 6.5 6.8 7.4 7.5 7.9
-1.3 -1.7 -1.8 -1.4 1.4 -1.3 0.3 5.0 6.5 6.5 6.5 6.5 6.5 6.5 6.5 6.5 6.5 6.5 6.5 6.5 6.5 6.5 6.5 6.5 6.5 6.5 6.6 6.5 6.5 6.4 6.5 6.5 6.5 6.5 6.5 6.5 6.5 6.5 6.5 6.5 6.5 6.5 7.1 7.5 7.8
-2.2 -3.1 -3.0 -2.4 -1.6 -0.9 2.1 6.6 6.5 6.5 6.5 6.5 6.5 6.5 6.5 6.5 6.5 6.5 6.5 6.5 6.5 6.5 6.6 6.5 6.5 6.5 6.5 6.5 6.5 6.5 6.5 6.5 6.5 6.5 6.5 6.5 6.5 6.5 6.5 6.8 7.1 7.2 7.3 7.5 7.5
-3.4 -2.3 -1.3 -0.7 -1.4 -0.5 6.9 6.5 6.5 6.5 6.5 6.5 6.5 6.5 6.5 6.5 6.5 6.5 6.5 6.5 6.5 6.5 6.5 6.5 6.5 6.5 6.5 6.5 6.5 6.5 6.5 6.5 6.5 6.5 6.5 6.5 6.5 6.5 6.5 6.5 6.7 6.9 7.2 7.1 7.4
-2.5 -0.7 2.4 -0.6 -1.0 3.0 6.6 6.5 6.5 6.5 6.5 6.5 6.5 6.5 6.5 6.5 6.5 6.5 6.4 6.5 6.5 6.5 6.5 6.5 6.5 6.5 6.5 6.6 6.6 6.5 6.5 6.5 6.5 6.5 6.5 6.5 6.5 6.5 6.5 6.5 6.5 6.5 6.8 7.2 7.5
-0.8 6.3 4.1 0.0 1.8 7.0 6.5 6.5 6.5 7.0 6.9 6.4 6.5 6.5 6.5 6.5 6.5 6.5 6.6 6.5 6.5 6.5 6.5 6.5 6.5 6.6 6.5 6.4 6.5 6.6 6.5 6.5 6.6 6.5 6.5 6.5 6.5 6.5 6.5 6.5 6.5 6.5 7.1 7.3 7.5
1.0 6.5 3.1 1.8 6.7 6.8 6.5 6.5 6.0 6.5 7.0 6.5 6.5 6.5 6.5 6.5 6.5 6.5 6.5 6.5 6.9 6.5 6.5 6.5 6.5 6.5 6.5 6.5 6.5 6.5 6.5 6.5 6.5 6.5 6.5 6.5 6.5 6.5 6.5 6.5 6.6 6.7 7.1 7.3 7.2
5.0 5.9 3.3 3.9 6.5 6.5 6.4 6.6 6.5 6.5 6.5 6.5 6.5 6.5 6.5 6.5 6.5 6.5 6.5 6.6 6.9 6.5 6.5 6.5 6.5 6.5 6.5 6.5 6.5 6.5 6.5 6.5 6.5 6.5 6.5 6.5 6.5 6.5 6.5 6.5 6.8 6.9 7.2 6.7 5.8
5.5 6.5 7.1 6.1 6.4 6.5 6.5 6.5 6.5 6.9 6.5 6.7 6.5 6.5 6.5 6.5 6.5 6.5 6.5 6.5 6.8 6.6 4.4 6.2 6.5 6.5 6.5 6.5 6.5 6.5 6.5 6.5 6.5 6.5 6.5 6.5 6.5 6.5 6.5 6.5 6.5 6.6 6.8 7.1 6.2
5.4 6.8 7.2 6.5 6.6 6.5 6.5 6.5 6.5 6.5 6.7 6.8 6.5 6.5 6.5 6.5 6.5 6.5 6.5 6.5 6.6 5.3 6.5 6.5 6.5 6.5 6.5 6.5 6.5 6.5 6.5 6.5 6.5 6.5 6.5 6.5 6.5 6.5 6.5 6.5 6.8 6.8 5.5 4.9 4.4
7.3 7.0 7.5 7.1 7.0 6.5 6.5 6.5 6.5 6.5 6.5 6.5 6.5 6.5 6.5 6.5 6.5 6.5 6.5 6.5 6.5 6.5 6.4 6.5 6.5 6.5 6.5 6.4 6.5 6.5 6.5 6.5 6.5 6.5 6.5 6.5 6.5 6.5 6.7 7.0 6.9 6.8 6.7 6.9 6.8
5.4 5.9 6.8 6.7 6.5 6.5 6.5 6.5 6.5 6.6 6.7 7.0 6.5 6.5 6.5 6.5 6.9 7.2 7.3 7.1 6.7 6.5 6.5 6.5 6.5 6.5 6.5 6.5 6.5 6.5 6.5 6.5 6.5 6.4 6.5 6.5 6.5 6.4 6.5 6.5 6.8 7.1 7.3 7.3 7.4
Wind_Speed
20 20 20 20 20 21 21 21 21 20 20 21 20 20 19 18 17 3 7 6 6 21 20 17 8 11 13 6 4 3 2 1 2 2 3 1 8 3 5 11 3 3 4 11 22
20 20 20 20 20 21 22 22 21 21 21 21 21 20 19 19 4 8 9 8 8 24 13 18 14 14 5 5 3 3 2 4 1 1 2 2 8 10 6 12 5 8 12 22 23
20 20 20 20 20 21 21 22 22 22 22 21 21 22 20 16 5 3 3 10 11 17 12 8 15 11 4 2 3 2 3 3 2 5 3 1 5 9 10 10 10 14 20 23 23
20 20 21 21 21 21 21 23 23 23 22 21 21 22 23 2 4 1 8 8 13 6 12 12 12 7 5 5 4 3 6 4 2 4 4 3 10 8 12 3 9 19 24 24 24
20 21 21 22 22 23 23 23 24 23 22 20 19 18 5 3 9 3 5 8 11 7 11 9 11 5 5 4 5 4 4 4 8 6 8 5 8 6 10 3 11 21 23 22 20
20 20 21 22 23 24 25 26 26 24 22 20 15 12 2 6 3 4 3 10 9 8 8 8 6 5 3 3 5 3 9 8 6 5 6 7 4 8 4 12 17 21 22 20 20
21 21 22 23 25 26 27 26 27 26 24 20 10 3 3 14 3 5 5 5 5 4 6 6 5 4 6 4 0 3 6 4 5 2 4 7 6 5 11 15 18 17 19 18 17
22 22 24 25 25 26 28 29 27 27 19 9 8 3 8 3 5 6 8 2 3 0 1 6 4 4 1 2 2 3 2 4 4 1 4 7 3 5 13 16 17 17 17 17 17
22 23 24 25 25 26 29 30 28 11 5 12 4 3 9 3 5 9 11 9 8 3 3 6 2 1 3 2 3 3 3 4 3 2 3 6 4 9 13 13 15 17 18 16 16
22 23 24 24 25 26 30 28 8 5 3 3 1 3 7 4 3 4 6 14 6 11 6 4 2 2 1 4 7 3 3 2 5 9 8 1 4 11 13 14 15 16 17 17 17
22 23 23 24 25 25 16 3 2 3 4 8 5 4 4 6 3 4 7 12 9 9 8 5 5 10 12 6 5 8 1 7 8 9 11 2 3 10 14 14 14 16 17 18 19
23 24 24 26 27 26 2 2 4 3 7 13 16 12 10 3 4 3 13 11 9 10 8 5 11 10 4 4 5 6 4 8 9 6 3 8 5 8 14 15 17 18 18 19 17
24 24 25 27 31 1 4 4 2 2 4 7 8 8 9 12 8 6 13 7 17 13 16 13 6 9 12 9 9 3 5 7 6 4 4 5 7 6 10 13 15 16 15 16 19
24 23 23 28 2 5 5 3 5 3 3 4 5 6 8 10 8 14 13 11 7 17 16 11 9 6 9 8 11 6 4 9 4 5 4 2 4 6 11 15 17 18 18 18 20
26 22 18 12 9 3 2 7 3 3 4 3 4 2 5 14 8 13 11 9 14 11 9 11 11 12 7 9 9 1 8 7 7 3 3 6 5 5 6 11 18 19 22 22 21
27 22 18 4 4 7 10 8 3 3 7 0 5 6 6 12 7 6 11 6 4 9 7 10 2 10 9 7 10 10 6 2 3 1 5 9 7 6 7 12 13 15 20 21 21
30 26 14 5 2 4 6 3 4 5 2 3 1 5 5 10 12 9 16 17 13 14 14 6 7 4 7 7 3 4 5 2 3 4 5 5 7 11 7 10 8 13 16 18 19
33 28 2 9 5 13 4 3 6 3 5 3 2 1 7 10 14 9 17 19 16 17 13 15 10 11 7 6 9 10 3 4 6 5 5 2 7 6 10 8 9 11 10 11 18
26 2 1 2 13 2 4 7 7 4 3 5 4 1 2 4 5 9 17 22 21 18 15 15 15 5 11 6 6 5 9 6 1 1 3 3 5 10 9 13 10 9 9 14 16
4 3 4 6 11 4 4 6 4 3 4 2 2 3 5 4 4 13 13 16 18 17 17 9 13 6 6 7 4 4 3 5 2 5 5 4 4 4 3 8 6 6 5 9 9
1 1 9 6 3 3 5 6 5 5 4 3 2 5 5 4 2 7 9 7 21 16 17 13 9 5 11 12 14 5 6 4 2 2 5 4 4 6 7 8 8 4 5 3 1
3 2 2 2 2 1 2 3 2 3 2 1 2 4 5 4 4 2 8 10 13 18 16 14 11 7 7 2 4 10 10 11 7 5 3 3 5 4 3 5 3 2 5 6 4
3 2 2 2 2 1 3 4 4 3 5 3 3 4 2 2 4 2 3 2 7 15 18 10 11 9 7 5 4 9 8 19 10 3 12 9 4 0 1 5 6 3 4 8 8
3 2 1 2 1 3 5 3 3 2 2 3 3 3 4 5 5 4 3 3 2 6 5 16 19 20 16 14 8 8 15 17 19 14 13 13 14 7 11 6 2 2 6 6 6
4 3 3 3 1 5 4 4 4 3 2 2 3 4 1 3 2 5 4 6 3 7 4 10 13 17 21 18 16 18 17 18 17 19 16 14 15 12 13 9 9 6 9 10 11
4 4 5 4 5 4 1 1 3 6 3 1 3 5 3 5 8 2 7 4 3 2 4 4 5 11 23 22 22 22 22 21 22 23 21 16 15 11 7 3 9 14 14 14 13
3 1 1 3 4 3 1 3 2 11 6 9 7 8 9 4 6 12 14 15 15 6 2 7 5 7 11 16 18 21 28 24 18 16 17 19 17 18 10 12 13 12 13 13 15
Wind_Direction
353 350 348 347 344 343 340 339 338 337 338 334 334 332 329 328 314 176 247 220 163 155 134 152 169 162 185 180 184 187 224 169 44 55 98 109 166 130 103 131 114 41 149 136 149
349 346 345 343 341 339 337 335 333 334 335 334 334 332 331 332 292 252 253 244 145 154 135 156 168 167 188 168 167 216 217 203 183 284 163 133 198 152 153 145 115 86 105 135 150
345 343 341 339 338 335 334 330 329 331 331 333 333 331 327 325 290 238 56 218 170 174 160 159 151 166 178 178 188 157 248 185 246 221 227 348 180 171 161 187 179 168 150 153 159
343 341 340 337 335 333 331 326 326 326 327 329 330 328 323 277 284 74 339 192 148 195 142 138 158 171 188 195 175 247 239 222 248 231 187 218 148 191 194 165 175 163 164 160 168
341 340 337 335 332 329 326 323 320 319 320 323 324 330 333 289 255 353 5 141 156 171 163 153 167 184 207 174 167 243 245 220 244 248 245 207 199 185 197 101 133 148 161 167 170
340 338 335 332 329 327 323 320 316 315 314 311 313 319 291 266 308 317 146 140 173 167 163 165 200 196 132 173 197 218 265 265 267 228 226 199 190 187 131 129 138 154 165 169 174
337 334 331 330 328 324 320 316 314 313 308 298 282 243 218 248 81 75 134 161 159 192 165 180 165 193 148 187 238 281 279 219 204 216 168 168 123 185 145 149 148 161 166 169 177
336 332 330 328 326 323 318 315 313 310 303 292 184 173 249 240 237 268 242 190 129 99 159 149 144 105 116 70 225 266 274 183 57 102 138 204 112 131 156 155 153 165 170 171 181
335 331 330 328 326 323 318 314 309 307 333 139 141 217 260 303 229 227 188 206 154 150 129 123 149 118 156 207 203 359 79 27 344 47 206 220 114 151 166 166 161 172 175 177 184
335 333 331 328 327 324 320 309 286 302 156 229 249 253 244 216 184 151 187 160 149 146 136 151 91 209 189 199 215 157 70 15 328 343 342 136 126 156 173 177 175 180 180 183 194
333 333 330 327 325 325 330 341 221 191 217 211 196 242 297 318 261 162 162 149 137 166 175 172 199 213 216 243 98 90 323 306 300 306 329 318 156 180 180 187 185 189 187 191 199
333 332 330 326 324 321 289 271 91 341 293 236 242 259 262 333 332 154 160 162 164 177 146 151 226 219 246 210 158 201 252 302 302 335 250 298 266 186 192 203 198 195 195 197 198
331 331 331 326 319 308 307 245 26 344 265 272 211 220 224 183 221 235 181 168 177 169 189 202 214 204 220 223 194 176 246 277 275 332 240 287 262 196 202 215 213 217 216 205 199
328 329 330 330 237 341 266 164 339 227 283 247 217 241 172 168 225 204 193 180 176 191 178 212 201 173 187 227 189 237 240 267 270 210 211 247 252 218 206 205 215 215 216 212 204
324 324 327 335 301 258 27 345 298 201 280 125 169 74 157 192 146 204 187 199 197 162 176 195 180 185 197 206 141 329 288 272 230 252 281 192 245 217 173 217 223 214 216 217 212
320 319 320 294 228 257 302 312 230 203 243 307 144 165 156 202 195 133 173 197 195 162 202 188 166 193 207 226 136 182 191 67 73 332 244 221 224 241 196 214 215 216 223 219 212
318 310 293 236 234 148 330 180 190 220 359 143 163 175 201 186 209 188 174 183 178 183 190 174 169 143 136 97 39 118 185 187 187 199 238 158 196 251 253 239 221 200 215 221 219
319 312 270 199 272 260 303 173 216 245 250 337 360 267 203 162 210 195 176 184 198 191 186 193 197 171 163 165 182 172 239 218 207 195 200 167 220 229 259 238 221 241 253 225 214
324 332 197 206 221 245 178 201 212 216 314 331 315 99 157 192 214 190 193 195 187 190 195 200 200 144 176 129 147 159 209 266 232 66 243 182 255 273 250 260 251 241 242 240 228
336 318 24 353 164 216 191 225 237 233 319 324 19 21 38 343 213 195 186 197 188 190 194 193 203 164 134 103 42 184 129 186 220 211 223 197 262 217 239 257 260 297 299 290 255
337 102 5 103 159 240 210 230 248 250 250 323 21 344 342 314 319 203 199 178 196 186 200 187 213 135 155 202 167 151 200 238 226 233 224 227 217 223 262 294 292 345 41 16 17
330 51 100 269 180 34 246 241 293 245 203 290 273 256 266 293 279 269 220 231 190 168 186 195 208 188 191 116 233 201 182 205 223 187 245 270 235 184 238 257 278 114 107 92 82
5 324 106 276 14 7 311 275 260 245 258 223 266 225 215 293 316 263 263 264 174 186 183 173 212 203 187 171 152 209 182 216 242 254 208 225 220 27 225 265 264 178 135 121 116
335 307 75 76 50 345 339 295 293 276 257 247 266 216 244 258 229 288 293 318 65 213 224 188 212 220 225 226 183 193 203 211 225 233 243 238 260 251 250 200 193 148 144 130 130
15 36 355 335 102 338 309 297 302 316 356 269 229 239 15 268 250 228 251 288 262 138 97 185 219 221 231 222 203 218 220 210 216 229 237 254 234 250 249 203 231 193 173 162 155
13 2 348 297 291 298 177 334 321 333 295 291 240 339 352 243 243 22 352 302 338 151 154 177 207 202 224 223 216 227 231 231 223 230 240 261 266 246 286 181 214 206 190 190 167
13 339 313 298 328 296 48 352 350 344 271 266 314 331 308 290 290 284 276 266 269 314 299 170 174 170 220 218 225 230 226 228 224 227 229 236 242 260 224 232 221 205 198 183 162